AMC-15

Last updated on Fri Apr 25 2025 00:02:38 GMT+0000 (Coordinated Universal Time)

1 28446U 04041A 25113.65339361 -.00000086 00000+0 00000+0 0 9994 2 28446 0.0549 56.9614 0002309 340.0027 305.1500 1.00272491 75108
UTC large
Height (km)
Speed (km/s)
/
Latitude / Longitude
Inclination (degrees)
Orbital Period (minutes)
Azimuth
Elevation
Range (km)
Doppler Factor

Next 0 passes for location: London (51.5072 / 0.1276)

Sorry there are no passes over London.